#timestamp,LO_Frequency,Hit,StdDev 
1541826015.5,286046999.9,N
1541826035.3,286047001.2,N
1541826055.2,286046999.4,N
1541826075.0,286046996.8,N
1541826075.9,286046996.8,N
1541826095.8,286047000.7,N
1541826115.6,286047000.9,N
1541826135.4,286046998.3,N
1541826155.3,286046998.4,N
1541826175.1,286047000.2,N
1541826195.8,286046999.7,N
1541826215.7,286047001.5,N
1541826235.5,286047001.5,N
1541826255.4,286047004.0,N
1541826275.2,286047005.7,N
1541826295.0,286047005.0,N
1541826295.9,286047005.0,N
1541826315.8,286047003.2,N
1541826335.6,286047001.7,N
1541826355.4,286047004.1,N
1541826375.3,286047004.3,N
1541826395.1,286047001.5,N
1541826415.9,286047001.4,N
1541826435.7,286047001.8,N
1541826455.5,286047004.3,N
1541826475.4,286047004.3,N
1541826495.2,286047001.5,N
1541826515.0,286047001.6,N
1541826515.9,286047001.6,N
1541826535.8,286047001.8,N
1541826555.6,286047003.1,N
1541826575.5,286047004.2,N
1541826595.3,286047004.4,N
1541826615.1,286047002.6,N
1541826635.9,286047002.6,N
1541826655.7,286047001.3,N
1541826675.5,286047001.6,N
1541826695.4,286047005.7,Y
1541826715.2,286047001.8,P
1541826735.1,286047002.3,P
1541826736.0,286047002.3,P
1541826755.8,286047003.9,Y
1541826775.6,286047002.7,P
1541826795.5,286046998.5,P
1541826815.3,286046998.7,N
1541826835.1,286047000.7,N
1541826855.9,286047000.4,N
1541826875.7,286047000.5,N
1541826895.6,286047002.7,N
1541826915.4,286047000.4,N
1541826935.2,286047002.3,N
1541826955.1,286047002.6,N
1541826956.0,286047002.6,N
1541826975.8,286047002.0,N
1541826995.6,286047000.1,N
1541827015.5,286046998.4,N
1541827035.3,286046998.1,N
1541827055.2,286047002.8,N
1541827075.9,286047002.7,N
1541827095.7,286047003.2,N
1541827115.6,286047004.4,N
1541827135.4,286047002.6,N
1541827155.2,286047002.5,N
1541827175.1,286047001.9,N
1541827176.0,286047001.9,N
1541827195.8,286047001.8,N
1541827215.7,286047001.5,N
1541827235.5,286047004.3,N
1541827255.3,286047004.3,N
1541827275.2,286047004.1,N
1541827295.0,286047005.7,Y
1541827295.9,286047005.7,P
1541827315.8,286047004.3,N
1541827335.6,286047002.2,N
1541827355.4,286047002.4,N
1541827375.3,286047000.3,N
1541827395.1,286047002.0,N
1541827396.0,286047002.0,N
1541827415.8,286047001.6,N
1541827435.7,286047004.3,N
1541827455.5,286047004.2,N
1541827475.3,286047001.3,N
1541827495.2,286047001.5,N
1541827515.0,286047001.5,N
1541827515.9,286047001.5,N
1541827535.8,286047004.2,N
1541827555.6,286047001.4,N
1541827575.4,286047002.0,N
1541827595.3,286047002.6,N
1541827615.1,286047002.2,N
1541827635.8,286047000.4,N
1541827655.7,286047002.7,N
1541827675.5,286047004.4,Y
1541827695.4,286046999.7,P
1541827715.2,286047000.8,N
1541827735.0,286047000.6,N
1541827735.9,286047000.6,N
1541827755.8,286047001.2,N
1541827775.6,286046999.1,N
1541827795.5,286047000.7,N
1541827815.3,286047000.3,N
1541827835.1,286047000.4,N
1541827855.9,286047000.4,N
1541827875.7,286046998.6,N
1541827895.5,286047001.9,N
1541827915.4,286047002.4,N
1541827935.2,286047000.5,N
1541827955.1,286047002.2,N
1541827956.0,286047002.2,N
1541827975.8,286047002.5,N
1541827995.6,286047002.6,N
1541828015.5,286047001.8,N
1541828035.3,286047002.1,N
1541828055.1,286047002.0,N
1541828075.9,286047002.8,N
1541828095.7,286047002.5,N
1541828115.6,286047002.3,N
1541828135.4,286046998.1,N
1541828155.2,286047000.6,N
1541828175.1,286046999.6,N
1541828176.0,286046999.6,N
1541828195.8,286046999.1,N
1541828215.6,286047001.1,N
1541828235.5,286046999.3,N
1541828255.3,286046997.9,N
1541828275.2,286046997.1,N
1541828295.9,286046997.1,N
1541828315.7,286046995.1,N
1541828335.6,286046993.3,Y
1541828355.4,286046993.5,P
1541828375.2,286046995.9,N
1541828395.1,286046995.9,N
1541828396.0,286046995.9,N
1541828415.8,286046995.0,N
1541828435.7,286046995.6,N
1541828455.5,286046994.4,N
1541828475.3,286046993.9,Y
1541828495.2,286046999.5,P
1541828515.0,286046997.3,N
1541828515.9,286046997.3,N
1541828535.8,286046996.9,N
1541828555.6,286046996.6,N
1541828575.4,286046997.9,N
1541828595.3,286046996.8,Y
1541828615.1,286046998.1,P
1541828635.8,286046999.0,N
1541828655.7,286046998.5,N
1541828675.5,286046998.3,N
1541828695.4,286046999.6,N
1541828715.2,286046999.5,N
1541828735.0,286046999.5,N
1541828735.9,286046999.5,N
1541828755.8,286046997.0,Y
1541828775.6,286046998.5,P
1541828795.4,286047002.5,P
1541828815.3,286047001.5,N
1541828835.1,286046999.8,N
1541828855.9,286047001.6,N
1541828875.7,286047002.4,N
1541828895.5,286047000.8,N
1541828915.4,286047001.0,N
1541828935.2,286047000.6,N
1541828955.0,286047001.0,N
1541828955.9,286047001.0,N
1541828975.8,286047000.4,N
1541828995.6,286046998.6,N
1541829015.5,286046999.0,N
1541829035.3,286046998.7,N
1541829055.1,286046998.8,N
1541829075.9,286046999.4,N
1541829095.7,286046997.8,N
1541829115.5,286046996.8,N
1541829135.4,286046997.1,N
1541829155.2,286046997.1,N
1541829175.1,286046997.3,N
1541829176.0,286046997.3,N
1541829195.8,286046997.6,N
1541829215.6,286046997.5,N
1541829235.5,286046997.9,N
1541829255.3,286046995.7,N
1541829275.2,286046993.3,Y
1541829295.9,286046993.9,P
1541829315.7,286046994.3,N
1541829335.6,286046993.5,N
1541829355.4,286046995.6,N
1541829375.2,286046993.6,Y
1541829395.1,286046998.9,P
1541829396.0,286046998.9,N
1541829415.8,286046998.6,N
1541829435.7,286046999.2,N
1541829455.5,286047011.9,Y
1541829475.3,286047001.2,P
1541829495.2,286047001.1,N
1541829515.0,286046998.4,N
1541829515.9,286046998.4,N
1541829535.8,286046999.6,N
1541829555.6,286046999.6,N
1541829575.4,286046999.6,N
1541829595.3,286046996.5,Y
